W9JOL Weather Reports


time (UTC)temp
F
wind
direction
speed
knots
gust
knots
rain 1hr
in
rain 24hr
in
rain mn
in
humidity
%
barometer
mb
20260505184623 56 152 1.7 5.2 0.00 0.01 0.00 43 1007.5
20260505184124 56 142 1.7 5.2 0.00 0.01 0.00 45 1007.6
20260505183624 56 83 1.7 5.2 0.00 0.01 0.00 45 1007.4
20260505183124 57 22 1.7 5.2 0.00 0.01 0.00 43 1007.4
20260505182624 56 45 1.7 7.0 0.00 0.01 0.00 43 1007.4
20260505182124 56 0 1.7 7.0 0.00 0.01 0.00 44 1007.3
20260505181624 56 206 1.7 5.2 0.00 0.01 0.00 41 1007.3
20260505181124 56 182 1.7 4.3 0.00 0.01 0.00 43 1007.2
20260505180624 56 312 1.7 5.2 0.00 0.01 0.00 41 1007.2
20260505180126 56 123 1.7 5.2 0.00 0.01 0.00 42 1007.1
20260505175625 57 164 1.7 5.2 0.00 0.01 0.00 39 1007.0
20260505175354 57 97 1.7 6.1 0.00 0.01 0.00 39 1007.0
20260505174625 56 342 1.7 6.1 0.00 0.01 0.00 46 1007.0
20260505173624 57 17 1.7 4.3 0.00 0.01 0.00 39 1007.1
20260505172621 57 146 1.7 6.1 0.00 0.01 0.00 42 1007.2
20260505172352 56 208 1.7 6.1 0.00 0.01 0.00 41 1007.2
20260505171852 56 247 1.7 5.2 0.00 0.01 0.00 43 1007.1
20260505171121 56 274 1.7 4.3 0.00 0.01 0.00 39 1007.1
20260505170621 56 0 1.7 4.3 0.00 0.01 0.00 44 1007.1
20260505170118 56 150 1.7 4.3 0.00 0.01 0.00 44 1007.0
20260505165616 56 168 2.6 5.2 0.00 0.01 0.00 46 1007.0
20260505165113 56 135 2.6 5.2 0.00 0.01 0.00 41 1006.8
20260505164613 56 141 1.7 5.2 0.00 0.01 0.00 43 1006.9
20260505164113 56 158 1.7 5.2 0.00 0.01 0.00 44 1006.8
20260505163614 56 131 1.7 5.2 0.00 0.01 0.00 43 1006.8
20260505163115 56 145 1.7 5.2 0.00 0.01 0.00 45 1006.9
20260505162614 56 27 1.7 6.1 0.00 0.01 0.00 41 1006.9
20260505162349 56 178 1.7 6.1 0.00 0.01 0.00 40 1007.1
20260505161615 56 116 1.7 7.0 0.00 0.01 0.00 42 1007.0
20260505161114 56 147 1.7 7.0 0.00 0.01 0.00 47 1007.0
20260505160611 56 258 1.7 6.1 0.00 0.01 0.00 43 1007.0
20260505160109 56 135 2.6 7.8 0.00 0.01 0.00 45 1007.0
20260505153347 55 154 2.6 7.0 0.00 0.01 0.00 46 1006.9
20260505152609 55 131 2.6 7.0 0.00 0.01 0.00 46 1006.9
20260505152109 55 340 1.7 5.2 0.00 0.01 0.00 44 1006.9
20260505151609 55 308 2.6 5.2 0.00 0.01 0.00 47 1007.0
20260505151110 55 258 2.6 5.2 0.00 0.01 0.00 47 1006.8
20260505150609 55 182 1.7 5.2 0.00 0.01 0.00 48 1006.9
20260505150109 55 191 1.7 4.3 0.00 0.01 0.00 48 1006.9
20260505140340 54 141 1.7 5.2 0.00 0.01 0.00 48 1007.3
20260505124955 49 124 0.9 4.3 0.00 0.01 0.00 53 1007.1
20260505123955 47 27 0.9 3.5 0.00 0.01 0.00 54 1006.9
20260505123453 47 152 1.7 3.5 0.00 0.01 0.00 56 1007.2
20260505122455 47 151 1.7 3.5 0.00 0.01 0.00 59 1006.9
20260505121955 46 155 0.9 3.5 0.00 0.01 0.00 59 1006.9
20260505121455 46 167 0.0 2.6 0.00 0.01 0.00 61 1006.8
20260505120955 45 0 0.0 2.6 0.00 0.01 0.00 64 1007.0
20260505120455 45 0 0.9 4.3 0.00 0.01 0.00 64 1007.5
20260505115955 44 0 1.7 4.3 0.00 0.01 0.00 66 1007.5
20260505115453 44 192 0.9 3.5 0.00 0.01 0.00 68 1007.6
20260505114953 44 175 0.0 1.7 0.00 0.01 0.00 68 1006.7
20260505114452 44 0 0.0 1.7 0.00 0.01 0.00 67 1006.3
20260505113952 44 0 0.0 1.7 0.00 0.01 0.00 66 1006.1
20260505113450 44 0 0.0 1.7 0.00 0.01 0.00 62 1005.9
20260505112951 44 0 0.0 1.7 0.00 0.01 0.00 64 1005.7
20260505112451 44 0 0.0 1.7 0.00 0.01 0.00 60 1005.5
20260505111951 44 0 0.0 0.9 0.00 0.01 0.00 61 1005.5
20260505111451 44 0 0.0 0.9 0.00 0.01 0.00 60 1005.8
20260505110951 45 125 0.0 1.7 0.00 0.01 0.00 59 1005.9
20260505110451 45 0 0.0 1.7 0.00 0.01 0.00 56 1005.9
20260505101949 46 32 0.9 4.3 0.00 0.01 0.00 55 1005.4
20260505101445 46 122 0.9 5.2 0.00 0.01 0.00 54 1005.2
20260505100942 46 344 0.9 5.2 0.00 0.01 0.00 53 1005.2
20260505100439 46 111 0.9 2.6 0.00 0.01 0.00 55 1005.4
20260505095939 47 0 0.9 3.5 0.00 0.01 0.00 53 1005.3
20260505095440 47 344 0.9 3.5 0.00 0.01 0.00 52 1005.0
20260505094930 46 0 0.9 3.5 0.00 0.01 0.00 53 1004.9
20260505094428 46 325 0.9 4.3 0.00 0.01 0.00 56 1004.9
20260505093926 46 143 0.9 4.3 0.00 0.01 0.00 60 1005.1
20260505093425 46 0 0.9 4.3 0.00 0.01 0.00 57 1005.2
20260505092926 46 333 0.9 4.3 0.00 0.01 0.00 58 1005.2
20260505092426 46 171 0.0 1.7 0.00 0.01 0.00 60 1005.3
20260505091926 46 0 0.9 2.6 0.00 0.01 0.00 58 1005.4
20260505091426 46 57 0.0 2.6 0.00 0.01 0.00 59 1005.4
20260505090926 46 0 0.9 2.6 0.00 0.01 0.00 56 1005.2
20260505090657 47 215 0.9 2.6 0.00 0.01 0.00 58 1005.0
20260505090159 47 0 0.9 3.5 0.00 0.01 0.00 57 1004.9
20260505085654 47 344 0.9 3.5 0.00 0.01 0.00 55 1004.5
20260505085206 47 354 0.9 3.5 0.00 0.01 0.00 54 1004.4
20260505084658 47 13 1.7 3.5 0.00 0.01 0.00 54 1004.3
20260505083920 47 317 1.7 3.5 0.00 0.01 0.00 53 1004.2
20260505083421 48 162 0.9 3.5 0.00 0.01 0.00 54 1004.1
20260505082921 48 334 0.9 3.5 0.00 0.01 0.00 54 1004.0
20260505082651 48 0 1.7 4.3 0.00 0.01 0.00 53 1003.9
20260505082157 48 324 1.7 5.2 0.00 0.01 0.00 53 1003.9
20260505081421 48 358 1.7 5.2 0.00 0.01 0.00 53 1003.8
20260505080920 49 78 1.7 7.0 0.00 0.01 0.00 56 1003.7
20260505080418 49 325 1.7 7.0 0.00 0.01 0.00 54 1003.5
20260505080146 49 331 1.7 5.2 0.00 0.01 0.00 53 1003.4
20260505075415 49 70 1.7 5.2 0.00 0.01 0.00 53 1003.2
20260505074911 50 6 1.7 5.2 0.00 0.01 0.00 54 1003.1
20260505074412 50 16 1.7 7.8 0.00 0.01 0.00 54 1002.9
20260505073912 50 14 1.7 7.8 0.00 0.01 0.00 54 1002.8
20260505073411 50 66 0.9 4.3 0.00 0.01 0.00 56 1002.9
20260505072912 51 131 0.9 4.3 0.00 0.01 0.00 55 1003.0
20260505072412 50 27 1.7 5.2 0.00 0.01 0.00 58 1002.8
20260505071913 50 275 1.7 5.2 0.00 0.01 0.00 58 1002.7
20260505071412 50 332 0.9 5.2 0.00 0.01 0.00 60 1002.7
20260505070912 51 326 0.9 2.6 0.00 0.01 0.00 58 1002.6
20260505070412 51 136 0.9 2.6 0.00 0.01 0.00 57 1002.6
20260505065913 51 0 0.9 2.6 0.00 0.01 0.00 56 1002.6
20260505065410 51 137 0.9 3.5 0.00 0.01 0.00 57 1002.8
20260505064910 52 0 0.9 3.5 0.00 0.01 0.00 56 1002.6
20260505064640 52 223 0.9 3.5 0.00 0.01 0.00 55 1002.5
20260505063907 53 0 0.9 3.5 0.00 0.01 0.00 56 1002.3
20260505062905 53 0 0.9 5.2 0.00 0.01 0.00 53 1002.0
20260505061904 54 33 1.7 5.2 0.00 0.01 0.00 53 1002.0
20260505061405 54 31 1.7 5.2 0.00 0.01 0.00 53 1001.9
20260505060904 54 28 1.7 5.2 0.00 0.01 0.00 53 1001.9
20260505060404 55 136 1.7 4.3 0.00 0.01 0.00 53 1001.9
20260505055905 55 80 1.7 5.2 0.00 0.01 0.00 51 1001.9
20260505055403 55 68 1.7 5.2 0.00 0.01 0.00 49 1002.0
20260505054902 56 54 2.6 7.8 0.00 0.01 0.00 49 1001.9
20260505054402 56 14 1.7 7.8 0.00 0.01 0.00 49 1001.7
20260505053902 56 0 1.7 5.2 0.00 0.01 0.00 49 1001.7
20260505053402 56 296 1.7 5.2 0.00 0.01 0.00 49 1001.6
20260505052903 56 252 1.7 5.2 0.00 0.01 0.00 48 1001.4
20260505052402 56 133 1.7 6.1 0.00 0.01 0.00 48 1001.4
20260505051902 56 130 0.9 6.1 0.00 0.01 0.00 49 1001.2
20260505051402 56 30 1.7 5.2 0.00 0.01 0.00 49 1001.2
20260505050902 56 123 1.7 5.2 0.00 0.01 0.00 48 1001.2
20260505050359 57 117 1.7 7.0 0.00 0.01 0.00 46 1001.1
20260505041356 60 139 1.7 6.1 0.00 0.01 0.01 44 1000.1
20260505040855 60 130 0.9 6.1 0.00 0.01 0.01 43 1000.1
20260505040355 60 24 0.9 4.3 0.00 0.01 0.01 44 1000.0
20260505040126 60 56 0.9 4.3 0.00 0.01 0.01 43 999.9
20260505035626 60 0 0.9 5.2 0.00 0.01 0.01 42 999.9
20260505035129 60 27 1.7 5.2 0.00 0.01 0.01 43 999.8
20260505034624 60 285 1.7 5.2 0.00 0.01 0.01 44 999.9
20260505033848 60 0 0.9 5.2 0.00 0.01 0.01 44 1000.0
20260505033349 60 0 0.9 4.3 0.00 0.01 0.01 49 1000.1
20260505032849 60 151 0.9 3.5 0.00 0.01 0.01 45 1000.1
20260505032349 60 100 0.9 3.5 0.00 0.01 0.01 46 1000.1
20260505031849 60 0 0.9 4.3 0.00 0.01 0.01 48 1000.0
20260505031348 60 146 0.9 4.3 0.00 0.01 0.01 51 999.9
20260505030850 60 103 0.0 2.6 0.00 0.01 0.01 52 999.9
20260505030349 61 81 0.0 1.7 0.00 0.01 0.01 51 999.9
20260505025847 61 35 0.0 2.6 0.00 0.01 0.01 48 999.7
20260505025346 62 23 0.9 2.6 0.00 0.01 0.01 47 999.6
20260505024846 62 89 0.9 3.5 0.00 0.01 0.01 46 999.6
20260505024347 62 0 0.9 4.3 0.00 0.01 0.01 45 999.6
20260505023845 63 176 1.7 4.3 0.00 0.01 0.01 42 999.5
20260505023345 63 276 1.7 6.1 0.00 0.01 0.01 42 999.4
20260505022845 63 26 1.7 6.1 0.00 0.01 0.01 43 999.2
20260505022346 64 124 1.7 7.0 0.00 0.01 0.01 43 999.1
20260505021844 64 0 0.9 7.0 0.00 0.01 0.01 45 999.1
20260505021344 64 75 0.9 4.3 0.00 0.01 0.01 45 999.1
20260505020844 65 287 1.7 7.0 0.00 0.01 0.01 45 998.9
20260505020345 65 334 1.7 7.0 0.00 0.01 0.01 45 998.8
20260505015844 65 0 0.9 4.3 0.00 0.01 0.01 47 998.6
20260505015342 66 174 1.7 4.3 0.00 0.01 0.01 45 998.5
20260505014842 66 147 1.7 5.2 0.00 0.01 0.01 45 998.3
20260505014342 66 299 0.9 5.2 0.00 0.01 0.01 48 998.3
20260505013842 67 124 0.9 4.3 0.00 0.01 0.01 49 998.1
20260505013341 67 0 1.7 6.1 0.00 0.01 0.01 48 997.9
20260505012842 67 319 1.7 6.1 0.00 0.01 0.01 46 997.7
20260505012610 67 126 0.9 5.2 0.00 0.01 0.01 47 997.4
20260505011840 68 82 0.9 5.2 0.00 0.01 0.01 47 997.2
20260505011340 68 121 0.9 4.3 0.00 0.01 0.01 48 996.9
20260505010841 68 127 1.7 7.0 0.00 0.01 0.01 47 996.7
20260505010608 69 64 0.9 7.0 0.00 0.01 0.01 48 996.6
20260505005842 70 138 0.9 4.3 0.00 0.01 0.01 47 996.6
20260505005342 70 121 0.9 5.2 0.00 0.01 0.01 47 996.5
20260505004840 71 0 1.7 5.2 0.00 0.01 0.01 45 996.5
20260505004612 71 339 1.7 5.2 0.00 0.01 0.01 45 996.2
20260505003840 71 44 1.7 6.1 0.00 0.01 0.01 44 996.1
20260505003340 70 204 0.9 6.1 0.00 0.01 0.01 47 995.8
20260505002839 70 0 0.0 1.7 0.00 0.01 0.01 49 995.6
20260505002340 71 50 0.0 1.7 0.00 0.01 0.01 48 995.4
20260505001839 71 335 0.0 1.7 0.00 0.01 0.01 47 995.3
20260505001339 72 0 0.0 1.7 0.00 0.01 0.01 45 995.3
20260505000841 73 0 0.0 2.6 0.00 0.01 0.01 45 995.3
20260505000343 73 0 0.9 3.5 0.00 0.01 0.01 43 995.4
20260504235837 73 235 0.9 3.5 0.00 0.01 0.01 43 995.4
20260504235337 73 0 0.0 2.6 0.00 0.01 0.01 42 995.4
20260504234837 73 0 0.0 2.6 0.00 0.01 0.01 44 995.4
20260504234338 73 0 0.9 2.6 0.00 0.01 0.01 42 995.4
20260504233837 73 253 0.9 4.3 0.00 0.01 0.01 41 995.5
20260504233336 74 188 1.7 4.3 0.00 0.01 0.01 41 995.5
20260504232837 74 175 1.7 4.3 0.00 0.01 0.01 41 995.6
20260504231836 74 324 1.7 6.1 0.00 0.01 0.01 42 995.9
20260504231336 74 181 2.6 7.0 0.00 0.01 0.01 40 995.9
20260504231107 74 300 2.6 7.0 0.00 0.01 0.01 40 996.1
20260504230333 75 155 2.6 7.0 0.00 0.01 0.01 42 996.2
20260504225602 76 305 1.7 6.1 0.00 0.00 0.00 38 996.0
20260504224833 76 199 1.7 6.1 0.00 0.00 0.00 38 995.9
20260504224333 77 182 1.7 6.1 0.00 0.00 0.00 37 995.9
20260504223833 78 192 1.7 5.2 0.00 0.00 0.00 36 995.9
20260504223333 78 181 1.7 5.2 0.00 0.00 0.00 38 995.9
20260504222833 78 196 1.7 7.0 0.00 0.00 0.00 39 995.9
20260504222333 78 187 1.7 7.0 0.00 0.00 0.00 39 995.9
20260504221833 78 249 1.7 7.0 0.00 0.00 0.00 36 995.9
20260504221334 77 192 2.6 7.8 0.00 0.00 0.00 39 995.9
20260504220833 77 182 2.6 7.8 0.00 0.00 0.00 39 996.0
20260504220330 77 212 1.7 5.2 0.00 0.00 0.00 38 996.0
20260504215830 77 251 1.7 7.8 0.00 0.00 0.00 39 996.2
20260504215558 76 154 1.7 7.8 0.00 0.00 0.00 38 996.2
20260504214828 76 186 2.6 7.0 0.00 0.00 0.00 41 996.2
20260504214329 77 236 2.6 7.0 0.00 0.00 0.00 39 996.4
20260504213829 77 193 1.7 5.2 0.00 0.00 0.00 38 996.2
20260504213329 78 153 1.7 6.1 0.00 0.00 0.00 39 996.4
20260504212829 78 10 2.6 7.8 0.00 0.00 0.00 36 996.4
20260504212606 78 302 2.6 7.8 0.00 0.00 0.00 36 996.4
20260504211829 78 157 1.7 6.1 0.00 0.00 0.00 37 996.4
20260504211327 78 168 1.7 6.1 0.00 0.00 0.00 35 996.6
20260504210826 78 200 1.7 7.0 0.00 0.00 0.00 36 996.6
20260504210325 78 73 2.6 7.0 0.00 0.00 0.00 35 996.6
20260504205827 78 180 2.6 8.7 0.00 0.00 0.00 36 996.7
20260504205325 78 215 2.6 8.7 0.00 0.00 0.00 37 996.8
20260504204826 78 298 2.6 7.8 0.00 0.00 0.00 36 996.8
20260504204557 78 348 2.6 8.7 0.00 0.00 0.00 37 996.7
20260504204100 78 131 3.5 8.7 0.00 0.00 0.00 37 996.9
20260504203327 77 193 3.5 8.7 0.00 0.00 0.00 38 996.9
20260504202827 78 0 2.6 9.6 0.00 0.00 0.00 38 997.0
20260504202556 77 181 2.6 10.4 0.00 0.00 0.00 37 997.0
20260504201831 77 28 2.6 10.4 0.00 0.00 0.00 37 997.1
20260504201058 77 189 3.5 10.4 0.00 0.00 0.00 36 997.2
20260504200322 77 185 3.5 10.4 0.00 0.00 0.00 37 997.3
20260504195821 77 25 2.6 8.7 0.00 0.00 0.00 39 997.4
20260504195321 77 206 3.5 8.7 0.00 0.00 0.00 38 997.4
20260504194819 77 237 2.6 8.7 0.00 0.00 0.00 38 997.4
20260504194547 76 204 2.6 8.7 0.00 0.00 0.00 39 997.4
20260504193818 76 174 2.6 8.7 0.00 0.00 0.00 35 997.4
20260504193317 77 190 2.6 7.8 0.00 0.00 0.00 36 997.4
20260504192818 77 130 2.6 11.3 0.00 0.00 0.00 37 997.5
20260504192318 77 193 2.6 11.3 0.00 0.00 0.00 36 997.4
20260504191820 76 249 2.6 8.7 0.00 0.00 0.00 37 997.6
20260504191319 76 183 3.5 11.3 0.00 0.00 0.00 38 997.6
20260504190819 76 190 4.3 11.3 0.00 0.00 0.00 36 997.5
20260504190315 76 195 3.5 8.7 0.00 0.00 0.00 36 997.6
20260504185816 76 220 4.3 8.7 0.00 0.00 0.00 37 997.6
20260504185317 76 202 3.5 7.8 0.00 0.00 0.00 37 997.6
20260504184816 76 163 2.6 7.8 0.00 0.00 0.00 38 997.7